Regional Weather Roundup
Issued by NWS

Home | Current Version | Previous Version | Graphics & Text | Print | Product List | Glossary Off
Versions: 1 2 3 4 5 6 7 8 9 10 11 12 13 14 15 16 17 18 19 20 21 22 23 24 25 26 27 28 29 30 31 32 33 34 35 36 37 38 39 40 41 42 43 44 45 46 47 48 49 50

000
ASUS43 KMKX 280121
RWRWI

WISCONSIN REGIONAL WEATHER ROUNDUP
NATIONAL WEATHER SERVICE MILWAUKEE/SULLIVAN WI
800 PM CDT TUE JUN 27 2017

NOTE: "FAIR" INDICATES FEW OR NO CLOUDS BELOW 12,000 FEET WITH NO
SIGNIFICANT WEATHER AND/OR OBSTRUCTIONS TO VISIBILITY.

WIZ001-002-006>008-014>016-023>028-280200-
NORTHWEST WISCONSIN

CITY           SKY/WX    TMP DP  RH WIND       PRES   REMARKS
SUPERIOR ARPT  NOT AVBL
ASHLAND        CLEAR     69  49  48 S7        29.86S
HAYWARD        CLEAR     68  46  45 S10       29.88S
SIREN          NOT AVBL
CUMBERLAND     NOT AVBL
RICE LAKE      NOT AVBL
CHETEK         NOT AVBL
LADYSMITH      NOT AVBL
EAU CLAIRE     CLEAR     71  44  37 S10       29.89F
MENOMONIE      NOT AVBL
NEW RICHMOND   NOT AVBL
OSCEOLA        NOT AVBL
$$

WIZ003>005-009-010-017-018-280200-
NORTH CENTRAL WISCONSIN

CITY           SKY/WX    TMP DP  RH WIND       PRES   REMARKS
MANITOWISH WTR NOT AVBL
ARBOR VITAE    NOT AVBL
WOODRUFF       NOT AVBL
RHINELANDER    CLEAR     67  48  50 SW8       29.94S
EAGLE RIVER    NOT AVBL
LAND O LAKES   NOT AVBL
PHILLIPS       NOT AVBL
TOMAHAWK       NOT AVBL
MEDFORD        NOT AVBL
MERRILL        NOT AVBL
$$

WIZ029-030-035-036-043>047-280200-
CENTRAL WISCONSIN

CITY           SKY/WX    TMP DP  RH WIND       PRES   REMARKS
WAUSAU           N/A    N/A N/A N/A MISG      29.92F
MOSINEE        MOCLDY    68  46  45 S8        29.96S
MARSHFIELD     CLOUDY    68  47  46 S8        29.93F
STEVENS POINT  NOT AVBL
WAUPACA        NOT AVBL
WAUTOMA        CLOUDY    70  51  51 S6        29.96F
WISC RAPIDS    PTCLDY    70  50  49 SW8       29.95F
CAMP DOUGLAS   MOCLDY    70  48  46 S7        29.94F
$$

WIZ011>013-019>022-031-037>040-048>050-280200-
NORTHEAST WISCONSIN

CITY           SKY/WX    TMP DP  RH WIND       PRES   REMARKS
ANTIGO         NOT AVBL
SHAWANO        NOT AVBL
OCONTO         NOT AVBL
STURGEON BAY     N/A     66  55  67 S6        29.95F
GREEN BAY      CLEAR     71  52  50 SW5       29.95F
MANITOWOC      CLEAR     71  48  43 SW3       29.97F
APPLETON       PTCLDY    70  45  40 SW7       29.95F
CLINTONVILLE   NOT AVBL
OSHKOSH        CLEAR     69  48  47 S7        29.96F
$$

WIZ032>034-041-042-053>061-280200-
SOUTHWEST WISCONSIN

CITY           SKY/WX    TMP DP  RH WIND       PRES   REMARKS
LA CROSSE      PTCLDY    76  48  37 S14       29.91F
SPARTA         NOT AVBL
VIROQUA        NOT AVBL
BOSCOBEL       PTCLDY    72  46  39 VRB6      29.95F
PRAIRIE DU CHI NOT AVBL
PLATTEVILLE    NOT AVBL
$$

WIZ056-057-062-063-064-067-068-280200-
SOUTH CENTRAL WISCONSIN

CITY           SKY/WX    TMP DP  RH WIND       PRES   REMARKS
REEDSBURG      NOT AVBL
BARABOO/DELLS  NOT AVBL
LONE ROCK      CLEAR     69  50  50 S5        29.96F
MINERAL POINT  NOT AVBL
MADISON        MOCLDY    71  46  40 SW7       29.97F
MIDDLETON      NOT AVBL
WATERTOWN      NOT AVBL
MONROE         NOT AVBL
JANESVILLE     PTCLDY    72  45  37 SW6       29.99F
$$

WIZ051-052-058>065-066-070>072-280200-
SOUTHEAST WISCONSIN

CITY           SKY/WX    TMP DP  RH WIND       PRES   REMARKS
MILWAUKEE      MOCLDY    68  51  54 S10       30.00S
WAUKESHA       CLEAR     68  45  42 CALM      30.01F
MILWAUKEE/TIMM PTCLDY    70  41  35 SW7       30.01S
RACINE         CLEAR     65  51  60 S12       30.03S
KENOSHA        CLEAR     68  48  48 SE9       30.01F
FOND DU LAC    CLEAR     70  45  40 S5        29.98S
SHEBOYGAN      CLEAR     69  50  50 SW7       29.98F
WEST BEND      NOT AVBL
JUNEAU         NOT AVBL
$$

LSZ147-162-280200-
LAKE SUPERIOR

STATION/POSITION TIME  TEMP    WIND        PRES    WAVE
                       AIR SEA DIR/SP/G            HT/PER
                 (UTC) (F)     (DEG/KT/KT) (MB)    (FT/S)
W MID LAKE BUOY  0050   49 39  180/  8/  8 1011.0F   0
DEVILS ISLAND    0100   69     200/  4/  5 1010.4F
SAXON HARBOR     0040   73     210/  3/  8 1011.2R
$$

LMZ867-665-643>646-280200-
LAKE MICHIGAN

STATION/POSITION TIME  TEMP    WIND        PRES    WAVE
                       AIR SEA DIR/SP/G            HT/PER
                 (UTC) (F)     (DEG/KT/KT) (MB)    (FT/S)
CHAMBERS ISLAND  0030   67     140/  5/  8 1013.2F
S GREEN BAY BUOY 0100   69     220/  8/ 10 1013.6
N MID LAKE BUOY  0050   58 55  190/ 14/ 14 1014.9F   1/ 3
NORTHPORT PIER   0040   64     160/  6/ 11 1013.9F
KEWAUNEE LAKESHO 0054   56     180/ 11/ 12 1014.1F
SHEBOYGAN LAKESH 0100   63     180/ 16/ 17 1015.0F
PORT WASHINGTON  0040   60     180/  8/ 11 1016.6S
ATWATER BUOY     0009   62 57  160/ 12/ 16 1015.9F
MILWAUKEE LAKESH 0100   62     150/ 15/ 17   N/A
S MID LAKE BUOY  0050   63 62  170/ 10/ 12 1016.7F   1/ 3
KENOSHA   LAKESH 0100   63     170/ 13/ 14 1015.9
$$

TC  - TEMPERATURE IN CELSIUS
VSB - VISIBILITY IN STATUTE MILES
WCI - WIND CHILL INDEX
HX  - HEAT INDEX




USA.gov is the U.S. government's official web portal to all federal, state and local government web resources and services.